DW1253 Weather Reports


time (UTC)temp
F
wind
direction
speed
knots
gust
knots
rain 1hr
in
rain 24hr
in
rain mn
in
humidity
%
barometer
mb
20260504181408 70 245 6.1 14.8 0.00 0.00 0.00 43 1004.2
20260504180836 70 254 4.3 14.8 0.00 0.00 0.00 45 1004.3
20260504180356 69 244 5.2 14.8 0.00 0.00 0.00 46 1004.4
20260504175847 69 215 7.0 17.4 0.00 0.00 0.00 43 1004.6
20260504175344 69 265 5.2 15.6 0.00 0.00 0.00 51 1004.5
20260504174850 70 282 7.0 15.6 0.00 0.00 0.00 45 1004.6
20260504174411 70 239 5.2 9.6 0.00 0.00 0.00 47 1004.7
20260504173853 69 225 4.3 14.8 0.00 0.00 0.00 45 1004.7
20260504173335 68 5 7.0 14.8 0.00 0.00 0.00 47 1004.7
20260504172834 68 170 5.2 10.4 0.00 0.00 0.00 50 1004.9
20260504172355 68 273 3.5 17.4 0.00 0.00 0.00 51 1005.0
20260504171914 67 286 6.1 17.4 0.00 0.00 0.00 48 1004.9
20260504171346 68 235 6.1 14.8 0.00 0.00 0.00 49 1004.9
20260504170857 68 259 7.0 14.8 0.00 0.00 0.00 49 1005.0
20260504170339 67 196 6.1 13.9 0.00 0.00 0.00 52 1005.0
20260504160334 64 277 5.2 10.4 0.00 0.00 0.00 52 1005.5
20260504150855 61 186 7.0 13.0 0.00 0.00 0.00 53 1005.9
20260504150344 61 276 5.2 11.3 0.00 0.00 0.00 54 1005.9
20260504140859 59 205 1.7 9.6 0.00 0.00 0.00 56 1005.9
20260504140351 59 246 6.1 10.4 0.00 0.00 0.00 60 1005.8
20260504130337 53 119 3.5 6.1 0.00 0.00 0.00 64 1006.3
20260504110348 48 148 4.3 11.3 0.00 0.02 0.00 66 1006.2
20260504100401 48 247 1.7 11.3 0.00 0.02 0.00 65 1005.8
20260504081851 45 218 1.7 10.4 0.00 0.02 0.00 69 1006.6
20260504070344 45 247 1.7 3.5 0.00 0.02 0.00 69 1007.3
20260504050332 46 267 2.6 7.0 0.00 0.02 0.00 64 1008.1
20260504045839 46 277 2.6 8.7 0.00 0.02 0.00 64 1008.1
20260504045343 46 222 3.5 8.7 0.00 0.02 0.00 65 1008.0
20260504044833 46 166 1.7 8.7 0.00 0.02 0.00 66 1008.1
20260504044338 46 217 2.6 8.7 0.00 0.02 0.00 66 1008.1
20260504043841 46 197 1.7 7.8 0.00 0.02 0.00 66 1008.1
20260504043343 46 228 3.5 10.4 0.00 0.02 0.00 65 1008.1
20260504042837 46 224 2.6 7.8 0.00 0.02 0.00 67 1008.1
20260504042334 46 242 2.6 7.0 0.00 0.02 0.00 67 1008.1
20260504041847 46 190 3.5 7.8 0.00 0.02 0.00 66 1008.1
20260504041348 46 227 2.6 7.8 0.00 0.02 0.00 66 1008.1
20260504040845 46 275 1.7 6.1 0.00 0.02 0.00 66 1008.0
20260504040341 46 219 1.7 6.1 0.00 0.02 0.00 66 1008.0
20260504035841 46 227 2.6 6.1 0.00 0.02 0.02 67 1008.2
20260504035349 46 234 2.6 9.6 0.00 0.02 0.02 67 1008.3
20260504034847 46 265 1.7 9.6 0.00 0.02 0.02 67 1008.0
20260504034332 46 183 0.9 8.7 0.00 0.02 0.02 67 1008.1
20260504033838 47 248 0.9 7.0 0.00 0.02 0.02 65 1008.1
20260504033337 47 247 2.6 5.2 0.00 0.02 0.02 65 1008.3
20260504032901 47 182 1.7 6.1 0.00 0.02 0.02 65 1008.3
20260504032343 48 226 2.6 6.1 0.00 0.02 0.02 64 1008.4
20260504031831 48 242 2.6 10.4 0.00 0.02 0.02 64 1008.4
20260504031347 48 231 2.6 10.4 0.00 0.02 0.02 62 1008.3
20260504030848 48 236 2.6 8.7 0.00 0.02 0.02 62 1008.4
20260504030331 48 226 3.5 8.7 0.00 0.02 0.02 61 1008.4
20260504025839 49 262 3.5 7.8 0.00 0.02 0.02 60 1008.4
20260504025404 49 175 3.5 9.6 0.00 0.02 0.02 61 1008.5
20260504024840 49 214 1.7 9.6 0.00 0.02 0.02 61 1008.5
20260504024407 49 213 3.5 9.6 0.00 0.02 0.02 60 1008.5
20260504023831 50 247 2.6 7.8 0.00 0.02 0.02 59 1008.6
20260504023333 50 231 3.5 8.7 0.00 0.02 0.02 59 1008.6
20260504022839 50 216 4.3 8.7 0.00 0.02 0.02 57 1008.6
20260504022341 51 187 4.3 10.4 0.00 0.02 0.02 57 1008.7
20260504021835 50 248 4.3 10.4 0.00 0.02 0.02 57 1008.7
20260504021348 51 221 3.5 14.8 0.00 0.02 0.02 57 1008.7
20260504020841 50 238 3.5 14.8 0.00 0.02 0.02 57 1008.7
20260504020333 50 267 6.1 12.2 0.00 0.02 0.02 56 1008.6
20260504015834 51 211 5.2 12.2 0.00 0.02 0.02 56 1008.6
20260504015348 51 204 4.3 12.2 0.00 0.02 0.02 56 1008.6
20260504014840 51 271 5.2 16.5 0.00 0.02 0.02 56 1008.5
20260504014337 51 248 7.0 16.5 0.00 0.02 0.02 57 1008.4
20260504013842 51 261 5.2 18.2 0.00 0.02 0.02 56 1008.5
20260504013350 51 221 7.0 18.2 0.00 0.02 0.02 56 1008.4
20260504012850 51 203 3.5 13.9 0.00 0.02 0.02 57 1008.4
20260504012337 51 248 4.3 9.6 0.00 0.02 0.02 56 1008.5
20260504011852 51 155 6.1 14.8 0.00 0.02 0.02 56 1008.4
20260504011354 51 251 6.1 14.8 0.00 0.02 0.02 57 1008.4
20260504010834 51 215 6.1 14.8 0.00 0.02 0.02 55 1008.4
20260504010404 51 193 7.8 18.2 0.00 0.02 0.02 56 1008.3
20260504005849 51 269 7.8 18.2 0.00 0.02 0.02 56 1008.4
20260504005336 51 227 5.2 13.9 0.00 0.02 0.02 56 1008.3
20260504004844 51 218 2.6 9.6 0.00 0.02 0.02 56 1008.4
20260504004344 51 213 3.5 10.4 0.00 0.02 0.02 58 1008.5
20260504003915 51 221 4.3 10.4 0.00 0.02 0.02 56 1008.4
20260504003330 51 255 4.3 12.2 0.00 0.02 0.02 55 1008.5
20260504002850 51 242 5.2 12.2 0.00 0.02 0.02 55 1008.4
20260504002347 51 223 6.1 13.0 0.00 0.02 0.02 55 1008.4
20260504001903 51 223 5.2 13.0 0.00 0.02 0.02 55 1008.3
20260504001334 51 192 5.2 16.5 0.00 0.02 0.02 56 1008.4
20260504000831 51 277 7.0 16.5 0.00 0.02 0.02 55 1008.3
20260504000354 51 228 4.3 16.5 0.00 0.02 0.02 54 1008.3
20260503235837 51 227 3.5 12.2 0.00 0.02 0.02 54 1008.3
20260503235343 51 267 3.5 12.2 0.00 0.02 0.02 54 1008.3
20260503234839 51 267 2.6 15.6 0.00 0.02 0.02 55 1008.3
20260503234340 51 286 4.3 15.6 0.00 0.02 0.02 54 1008.3
20260503233843 51 226 5.2 11.3 0.00 0.02 0.02 54 1008.3
20260503233348 51 226 6.1 11.3 0.00 0.02 0.02 54 1008.3
20260503232836 51 255 4.3 19.1 0.00 0.02 0.02 53 1008.3
20260503232406 51 215 5.2 19.1 0.00 0.02 0.02 53 1008.1
20260503231838 52 232 4.3 13.9 0.00 0.02 0.02 53 1008.4
20260503231347 52 209 4.3 13.9 0.00 0.02 0.02 52 1008.4
20260503230849 52 237 5.2 12.2 0.00 0.02 0.02 52 1008.4
20260503230346 52 246 5.2 12.2 0.00 0.02 0.02 52 1008.4
20260503225836 52 249 2.6 15.6 0.00 0.02 0.02 50 1008.5
20260503225341 52 214 4.3 15.6 0.00 0.02 0.02 49 1008.5
20260503224835 52 242 5.2 15.6 0.00 0.02 0.02 49 1008.5
20260503224333 52 244 6.1 18.2 0.00 0.02 0.02 48 1008.5
20260503223837 52 224 6.1 18.2 0.00 0.02 0.02 48 1008.6
20260503223337 52 278 4.3 9.6 0.00 0.02 0.02 49 1008.8
20260503222843 52 230 4.3 11.3 0.00 0.02 0.02 50 1008.8
20260503222333 52 157 4.3 14.8 0.00 0.02 0.02 49 1008.7
20260503221837 52 69 5.2 15.6 0.00 0.02 0.02 48 1008.7
20260503221344 53 234 6.1 15.6 0.00 0.02 0.02 48 1008.4
20260503220850 53 238 6.1 16.5 0.00 0.02 0.02 50 1008.7
20260503220352 53 300 4.3 16.5 0.00 0.02 0.02 49 1008.5
20260503215839 53 200 5.2 13.0 0.00 0.02 0.02 48 1008.3
20260503215335 53 263 3.5 11.3 0.00 0.02 0.02 48 1008.4
20260503214838 53 188 7.8 13.9 0.00 0.02 0.02 51 1008.3
20260503214355 53 213 6.1 13.0 0.00 0.02 0.02 51 1008.4
20260503213330 53 312 7.0 13.0 0.00 0.02 0.02 50 1008.3
20260503212847 54 265 4.3 10.4 0.00 0.02 0.02 49 1008.3
20260503212349 53 232 5.2 14.8 0.00 0.02 0.02 50 1008.3
20260503210837 54 239 4.3 8.7 0.00 0.02 0.02 49 1008.2
20260503210403 54 209 3.5 16.5 0.00 0.02 0.02 50 1008.3
20260503205853 54 248 3.5 16.5 0.00 0.02 0.02 50 1008.3
20260503205401 54 234 6.1 15.6 0.00 0.02 0.02 48 1008.3
20260503204837 54 223 4.3 13.0 0.00 0.02 0.02 50 1008.3
20260503204334 54 209 5.2 18.2 0.00 0.02 0.02 48 1008.4
20260503203855 55 267 6.1 15.6 0.00 0.02 0.02 48 1008.4
20260503203334 56 260 5.2 14.8 0.00 0.02 0.02 46 1008.5
20260503202840 57 192 3.5 10.4 0.00 0.02 0.02 49 1008.6
20260503202350 57 220 4.3 13.0 0.00 0.02 0.02 47 1008.5
20260503201858 57 212 6.1 13.0 0.00 0.02 0.02 47 1008.6
20260503201352 57 219 6.1 14.8 0.00 0.02 0.02 46 1008.6
20260503200831 57 333 7.0 14.8 0.00 0.02 0.02 45 1008.6
20260503200340 57 237 6.1 14.8 0.00 0.02 0.02 46 1008.6
20260503195831 56 265 5.2 13.9 0.00 0.02 0.02 46 1008.6
20260503195331 56 298 4.3 10.4 0.00 0.02 0.02 46 1008.7
20260503194845 56 200 4.3 10.4 0.00 0.02 0.02 48 1008.9
20260503194338 56 252 4.3 10.4 0.00 0.02 0.02 50 1008.9
20260503193843 56 177 2.6 8.7 0.00 0.02 0.02 50 1009.1
20260503193345 54 234 2.6 8.7 0.00 0.02 0.02 51 1009.1
20260503192846 54 223 4.3 13.0 0.00 0.02 0.02 50 1009.2
20260503192345 55 103 3.5 13.9 0.00 0.02 0.02 50 1009.1
20260503191836 55 5 3.5 13.0 0.00 0.02 0.02 47 1009.2
20260503191339 55 256 5.2 10.4 0.00 0.02 0.02 49 1009.2
20260503190841 55 267 3.5 14.8 0.00 0.02 0.02 49 1009.3
20260503190352 54 279 7.0 14.8 0.00 0.02 0.02 47 1009.3
20260503185838 55 240 5.2 13.0 0.00 0.02 0.02 45 1009.3
20260503185344 55 227 4.3 20.0 0.00 0.02 0.02 46 1009.5
20260503184843 54 245 8.7 20.0 0.00 0.02 0.02 45 1009.3
20260503184347 54 213 8.7 17.4 0.00 0.02 0.02 45 1009.4
20260503183835 54 206 5.2 13.9 0.00 0.02 0.02 47 1009.5
20260503183358 55 248 4.3 13.9 0.00 0.02 0.02 45 1009.6
20260503182846 54 196 4.3 15.6 0.00 0.02 0.02 47 1009.6
20260503182344 54 273 5.2 15.6 0.00 0.02 0.02 45 1009.7
20260503181833 54 195 4.3 13.9 0.00 0.02 0.02 47 1009.7